Location: Newark
(50.4348°N, 30.5552°E)
Time: 11:16:16
(UTC+00:00)

Vanguard 3 - Pass Details

Date: 20 January 2020
Orbit: 508 x 3263 km, 33.3° (Epoch: 22 February)

Event Time Altitude Azimuth Distance (km) Brightness Sun altitude
Rises 20:04:15 0° 259° (WSW) 6,800 12.2 -51.0°
Reaches altitude 10° 20:09:55 10° 251° (WSW) 5,424 11.5 -51.7°
Enters shadow 20:16:23 23° 233° (SW) 3,905 10.5 -52.4°
